Snowfall_Accumulation
0.0 0.0 0.0 0.0 0.0 0.0 0.0 0.0 18.0 0.0 0.0 4.0 13.4 7.1 0.2 0.0 0.0 0.0 0.0 0.0 0.0 0.1 0.0 0.0 0.1 0.0 0.0 0.0 0.0 0.0 0.0 0.0 0.3 0.0 0.0 0.0 0.0 0.0 0.0 7.6 6.3 3.6 3.0 3.5
0.0 0.0 0.0 0.0 0.0 0.0 0.0 7.3 3.8 0.0 0.0 21.5 10.4 0.9 0.1 0.0 0.0 0.0 0.0 0.0 0.0 0.0 0.0 0.1 0.0 0.0 0.0 0.0 0.0 0.1 0.0 0.7 2.3 0.7 0.0 0.0 0.1 0.0 0.0 0.2 1.3 2.9 5.4 0.8
0.0 0.0 0.0 0.0 0.0 0.0 0.0 4.9 24.6 1.9 0.0 0.5 2.3 5.4 1.8 0.4 0.0 0.1 0.2 0.0 0.0 0.0 0.0 0.0 0.0 0.0 0.0 0.0 0.0 0.0 0.0 0.0 1.0 1.2 0.6 0.0 0.1 0.0 0.0 1.9 9.3 4.1 1.8 0.0
0.0 0.0 0.0 0.0 0.0 0.0 0.0 7.3 17.8 0.0 18.7 8.6 1.9 0.9 0.1 0.7 2.1 0.3 0.0 1.5 1.9 2.2 1.0 0.1 0.1 0.0 0.0 0.0 0.0 0.0 0.6 1.2 0.3 0.0 0.0 0.0 0.0 0.2 0.0 0.2 0.2 4.7 0.3 0.8
0.0 0.0 0.0 0.0 0.0 0.0 0.0 35.3 6.3 0.3 0.1 0.9 1.1 2.1 1.8 0.0 0.4 0.1 0.4 2.5 0.4 0.1 0.9 0.3 0.9 0.4 0.3 0.3 0.0 0.2 0.0 1.6 0.5 0.1 0.0 0.0 0.0 0.0 0.0 0.0 0.2 0.4 0.1 0.5
0.0 0.0 0.0 0.0 0.0 0.0 3.7 1.8 0.0 0.9 2.3 0.4 2.8 1.0 0.4 0.8 0.0 0.0 0.0 0.1 0.2 0.3 0.1 0.0 0.0 0.0 0.0 0.0 0.4 1.3 2.0 3.5 2.7 1.3 0.0 1.1 1.8 0.0 0.2 0.0 0.0 0.0 0.3 0.0
0.0 0.0 0.0 0.0 0.0 0.0 0.0 0.0 0.0 7.3 8.7 2.7 0.5 0.0 0.0 0.0 0.1 0.4 0.0 0.0 1.5 0.0 0.0 0.0 0.0 0.0 0.0 0.0 0.0 0.0 2.0 2.6 5.0 5.6 0.6 8.8 0.2 0.0 1.1 0.4 1.1 0.9 0.8 0.3
0.0 0.0 0.0 0.0 0.0 0.0 0.0 0.0 0.0 5.1 13.1 0.1 0.2 0.8 0.3 0.0 0.0 0.3 0.0 0.0 0.0 0.0 0.0 1.5 2.5 2.4 0.2 0.0 0.3 0.1 0.0 1.3 8.6 10.4 6.5 0.1 0.0 1.7 5.0 6.1 4.7 2.8 2.3 1.4
0.0 0.0 0.0 0.0 0.0 0.0 0.0 0.0 0.0 2.1 10.5 2.9 0.0 0.6 0.5 1.7 1.3 1.4 0.0 0.0 0.0 0.0 3.7 6.7 8.4 4.3 1.7 1.9 1.0 0.0 0.0 0.0 4.9 6.4 13.5 8.8 5.4 0.9 0.0 3.2 7.5 2.1 2.8 2.5
0.0 0.0 0.0 0.0 0.0 0.0 0.0 0.0 0.0 0.4 20.7 0.0 0.0 0.5 1.6 0.0 0.7 2.6 0.6 0.6 0.7 0.0 6.1 13.1 11.9 5.8 0.0 3.4 6.4 3.3 2.7 4.4 7.0 5.8 8.7 5.1 3.0 1.4 1.6 8.6 7.9 2.3 3.8 4.2
0.0 0.0 0.0 0.0 0.0 0.0 0.0 0.0 0.0 0.0 8.6 1.2 0.0 0.0 1.2 0.0 0.4 3.6 1.6 3.6 3.7 4.2 8.2 7.3 5.7 8.3 1.5 5.2 6.8 2.6 3.9 5.9 5.3 7.0 13.3 12.2 0.3 1.2 5.5 5.6 3.3 2.9 4.3 4.4
0.0 0.0 0.0 0.0 0.0 0.0 0.0 0.0 0.0 0.0 1.0 0.0 0.0 0.0 0.0 0.0 0.0 0.0 0.0 1.6 3.0 3.1 3.9 2.7 2.6 3.5 2.4 3.8 8.1 1.5 14.3 9.2 11.7 7.8 9.1 3.3 1.6 3.0 3.1 2.8 3.0 3.7 3.6 3.9
0.0 0.0 0.0 0.0 0.0 0.0 0.0 0.0 0.0 0.0 6.3 1.4 0.0 0.0 0.0 0.0 0.0 0.0 0.6 0.0 0.0 2.7 0.4 3.1 1.6 3.8 0.4 3.3 6.3 2.8 0.6 1.2 6.7 3.8 3.6 2.4 2.5 1.8 1.5 2.1 2.5 2.7 2.1 3.1
0.0 0.0 0.0 0.0 0.0 0.0 0.0 0.0 0.0 0.0 0.4 7.0 1.4 0.0 0.0 0.0 0.0 0.0 0.0 0.0 0.0 0.0 0.0 3.0 3.7 2.4 0.1 1.3 3.1 2.4 0.3 0.6 2.3 4.6 3.8 2.4 2.0 2.5 1.9 2.6 2.2 2.6 2.6 1.8
0.0 0.0 0.0 0.0 0.0 0.0 0.0 0.0 0.0 0.0 0.2 4.1 1.1 0.0 0.0 0.0 0.0 0.0 0.0 0.0 0.0 0.0 0.7 2.7 2.6 0.3 1.9 2.0 1.4 2.9 1.5 6.3 5.8 6.0 2.2 3.8 5.6 3.6 2.2 2.5 4.2 3.1 1.0 0.8
0.0 0.0 0.0 0.0 0.0 0.0 0.0 20.4 0.0 0.0 0.0 3.3 4.9 0.0 0.0 0.0 0.0 0.0 0.0 0.0 0.0 0.0 1.6 1.2 0.4 0.0 1.1 5.5 8.8 3.3 2.0 1.3 1.1 6.2 4.5 6.1 5.5 3.5 1.8 1.9 2.5 2.5 1.8 1.2
0.0 0.0 0.0 0.0 0.0 0.0 5.0 4.2 0.0 0.0 0.0 9.0 8.5 2.2 0.6 0.6 0.0 0.0 0.0 0.0 0.3 0.1 0.6 0.8 0.4 0.5 0.0 3.7 7.9 3.7 2.3 2.8 2.4 2.1 2.2 2.6 2.2 2.1 0.9 0.1 0.0 0.0 0.0 0.0
0.0 0.0 0.0 0.0 0.0 0.0 0.7 0.0 0.0 0.0 1.5 2.5 9.4 4.0 3.8 0.4 1.4 2.0 0.0 0.7 0.8 0.5 0.2 0.6 0.2 0.0 0.7 6.6 5.6 3.1 2.1 2.7 2.2 2.0 0.8 0.5 0.0 0.0 0.0 0.0 0.0 0.0 0.0 0.0
0.0 0.0 0.0 0.0 0.0 0.8 0.0 0.0 0.0 0.0 0.0 4.5 1.3 6.9 17.2 3.5 1.6 0.5 0.4 0.1 5.7 0.4 2.8 0.6 0.7 7.3 13.1 8.2 2.4 2.9 1.8 2.8 2.6 1.1 0.2 0.0 0.0 0.1 0.0 0.0 0.0 0.0 0.0 0.0
0.0 0.0 2.9 17.9 0.0 0.0 0.0 0.0 5.0 8.2 2.4 1.4 1.4 0.2 5.3 3.1 4.7 3.2 1.1 0.7 1.9 5.9 2.1 1.2 9.2 9.7 2.9 0.8 0.6 1.4 0.9 0.8 0.8 0.9 0.8 0.2 0.2 0.1 0.1 0.2 0.2 0.1 0.1 0.3
0.0 3.6 8.4 0.0 0.0 0.0 1.4 9.4 8.4 4.2 5.1 0.2 0.7 0.4 3.4 0.5 11.4 5.5 0.4 1.6 1.1 2.7 3.6 2.8 8.7 6.7 3.8 0.6 0.3 0.6 1.0 1.1 1.4 1.7 2.0 1.4 1.2 1.2 0.3 0.8 1.0 0.9 1.3 1.3
0.0 0.0 0.0 0.5 3.0 5.6 10.1 7.5 5.1 3.8 1.9 0.5 0.9 0.9 0.1 2.8 1.5 5.6 2.1 4.3 3.8 11.1 2.2 2.9 8.4 5.9 1.6 1.0 0.8 0.7 1.1 1.8 2.3 2.0 2.4 2.6 2.6 2.7 2.3 2.3 2.4 2.7 3.0 3.4
0.0 0.5 1.3 2.9 4.8 11.8 7.7 3.6 3.4 4.0 2.2 1.6 1.9 6.0 5.3 1.8 1.2 5.9 3.9 10.4 10.7 0.9 14.1 8.9 6.3 2.4 1.2 0.8 0.7 1.0 1.5 1.7 2.2 3.1 3.1 2.6 2.7 2.6 2.6 3.1 3.7 3.7 6.3 9.0
1.5 3.3 7.5 9.6 6.6 6.1 6.3 5.3 4.4 2.1 1.8 1.4 5.1 6.3 8.8 6.6 8.9 6.4 5.8 9.5 6.6 9.4 9.0 8.7 5.2 3.5 3.0 2.5 2.5 1.5 4.3 4.7 4.4 5.9 5.2 5.2 5.5 8.9 10.2 11.3 12.4 10.4 12.5 16.0
6.7 4.9 9.3 6.2 7.0 6.0 6.2 4.9 3.2 1.3 1.8 2.6 4.9 5.6 4.5 6.5 12.9 7.1 4.4 6.7 9.3 9.4 13.1 7.4 6.7 5.2 5.0 5.9 6.5 7.1 8.6 9.1 9.9 11.3 10.3 13.0 12.5 10.7 14.4 15.9 14.5 11.9 12.1 12.8
5.1 8.9 10.0 6.3 5.3 8.5 6.9 5.1 3.9 2.8 4.5 3.9 4.6 7.8 6.8 7.4 4.7 4.7 5.5 5.9 10.4 9.2 7.4 7.9 6.0 7.5 9.4 10.5 11.0 12.0 12.0 11.9 12.6 12.6 11.4 11.6 11.4 10.4 11.5 12.0 11.1 10.9 8.3 8.0
6.2 11.5 11.7 10.7 8.6 11.5 10.5 7.2 5.6 3.7 4.7 7.3 4.6 6.1 8.1 3.9 2.0 2.2 3.9 8.8 12.5 11.9 11.8 9.9 8.9 9.9 12.4 12.7 11.8 12.0 10.2 9.3 9.0 8.3 7.8 8.3 8.2 5.1 3.9 4.9 6.3 4.6 4.3 4.1